Погода в Мужи

Погода в Мужи : погода сейчас, прогноз погоды и архив. Всё, что Вы хотите узнать о погоде в Мужи!

Хотите узнать прогноз погоды в Мужи? Тогда Вам сюда: Погода в Мужи

Поиск расширенной информации на нашем сайте:

Другие новости

Новости СМИ2

Главная страница сайта

Новости сайта

03.07.2017

Напоминаем, что на нашем специализированном сайте Метеоцентр.Азия вы можете получить высокодетализированные автоматические прогнозы погоды по пунктам России, СНГ и мира в авиационном формате (включающие направление и скорость ветра, видимость, явления погоды, количество и форму облачности, нижнюю и верхнюю границу облачности).


Погода в Мужи - сегодня

Время (UTC), дата Ветер
(°,м/с) 
Видим.   Явления Облачность Т
(°С)
Тd
(°С)
f(%) Тe
(°С)
Pmin
(гПа)
dP
(гПа)
Po
(мм)
O2
(г/м3)
Тmin Tmax R s Состояние
почвы
03 17.04.18 360 (С) н/о    3/0 верхняя 
[Ci fib]
-13.4 -18.8 64 -16  1017.5  0.9  761  324  -18.7      64  неравномерный
сухой снег
100% 
06 17.04.18 010 (С) н/о    3/0 верхняя 
[Ci fib]
-8.6 -16.4 53 -12  1018.5  1.1  762  318           
09 17.04.18 360 (С) н/о    3/1 600 м верхняя 
[Cu hum|Ci fib]
-5.8 -15 48 -8  1019.3  0.8  763  315           
12 17.04.18 350 (С) н/о    3/3 600 м 
[Cu hum]
-5.7 -15.6 46 -9  1020.3  763  316           
18 17.04.18 240 (ЮЗ) 50000 м    8/0 средняя 
[Ac trans]
-12 -16.2 71 -15  1019.5  -0.5  763  323           
21 17.04.18 230 (ЮЗ) 50000 м    10/0 средняя 
[Ac As]
-10.9 -14.9 72 -16  1018.6  -0.8  762  321           
00 18.04.18 240 (ЮЗ) 50000 м    10/0 средняя 
[Ac As]
-10 -14.8 68 -15  1017.5  -1.2  761  320           
03 18.04.18 240 (ЮЗ) 7-10{10}  н/о    10/0 средняя 
[Ac As]
-5.7 -13.6 54 -11  1015.5  -1.9  760  314  -12.3      64  неравномерный
сухой снег
100% 
06 18.04.18 230 (ЮЗ) 5{11}  н/о    10/0 средняя 
[Ac As]
-3.4 -12.5 49 -7  1013.2  -2.3  758  310           
15 18.04.18 240 (ЮЗ) 8-12{15}  17000 м  слаб. снег  10/0 средняя 
[As op]
-2.4 -8.4 63 -7  1002.6  -2.8  750  306    -2.3  0.0     
03 19.04.18 280 (З) 6-12{12}  55000 м  позёмок{ливн. осадки}  8/8 600 м кучево-дожд. 
[Cb cap]
-4.4 -6.2 87 -9  998.9  -0.5  747  307  -4.8    0.4  65  неравномерный
сухой снег
100% 
15 19.04.18 240 (ЮЗ) 3{10}  н/о  {ливн. осадки}  8/6 600 м кучево-дожд., верхняя 
[Cb cap|Ci fib]
-5.5 -10.8 66 -8  1000.1  -0.6  748  309    -3.3  0.0     
21 19.04.18 300 (СЗ) 50000 м    3/3 1000 м 
[Sc]
-12 -16.7 68 -16  999.3  -0.8  748  316           
03 20.04.18 280 (З) 6-11{11}  н/о  позёмок{ливн. осадки}  4/3 600 м средняя 
[Cu Sc|Ac trans]
-11.2 -17.3 61 -17  998.4  0.2  747  315  -12.8    0.0  64  неравномерный
сухой снег
100% 
15 20.04.18 320 (СЗ) 3{12}  14000 м  слаб. снег{ливн. осадки}  10/3 300 м средняя 
[Frnb|As op]
-9.4 -13.6 71 -12  1002.3  0.1  750  314    -6.9  0.2     
03 21.04.18 330 (СЗ) н/о  позёмок  3/0 средняя, верхняя 
[Ac trans|Ci fib]
-11.9 -17.9 61 -17  1002.6  0.2  750  317  -15.8    0.0  63  неравномерный
сухой снег
100% 
06 21.04.18 340 (С) н/о    4/0 верхняя 
[Ci fib]
-6.8 -16.5 46 -9  1003  0.4  750  311           
09 21.04.18 280 (З) н/о    4/1 600 м верхняя 
[Cu hum|Ci fib]
-4.2 -15 43 -7  1003.5  0.6  751  309           
12 21.04.18 350 (С) н/о  позёмок  3/1 600 м верхняя 
[Cu hum|Ci fib]
-5.5 -14.9 47 -9  1004.3  0.8  752  310           
15 21.04.18 310 (СЗ) н/о    1/0 средняя 
[Ac trans]
-8.6 -15.4 58 -11  1005  0.6  752  314    -4.2       
18 21.04.18 310 (СЗ) 50000 м    1/0 средняя 
[Ac trans]
-13.1 -16.6 75 -15  1005.6  0.5  752  320           
21 21.04.18 270 (З) 50000 м    ясно 
-12 -15.8 73 -16  1005.6  0.1  752  318           
00 22.04.18 280 (З) н/о    н/о 
-13 -16.6 74 -15  1006.3  0.7  753  320           
06 22.04.18 060 (СВ) н/о    ясно 
-6.7 -13.8 57 -9  1007.8  0.6  754  313           
09 22.04.18 110 (В) н/о    1/1 600 м 
[Cu hum]
-4.6 -13.1 51 -6  1009  1.2  755  311           
Время (UTC), дата Ветер
(°,м/с) 
Видим.   Явления Облачность Т
(°С)
Тd
(°С)
f(%) Тe
(°С)
Pmin
(гПа)
dP
(гПа)
Po
(мм)
O2
(г/м3)
Тmin Tmax R s Состояние
почвы

Для получения пояснительной информации подведите курсор к названию столбца.

ПОГОДА в Мужи - архив

Всё, что Вы хотите узнать о погоде в Мужи - удобно и подробно!

Выберите нужную дату (начиная с 1 января 2015* года) и нажмите кнопку "Найти".
Будут отображены архивные сводки погоды по пункту Мужи, начиная с указанной даты.


Отображать данные в формате CSV (для использования в таблицах Excel)


Внимание! Наш архив погоды предназначен исключительно для личного некоммерческого использования в познавательных целях. Если Вам необходимы официальные справки о состоянии погоды (для производственных, юридических, коммерческих и т.п. целей), обращайтесь в органы Росгидромета.

*Примечание: данная дата относится к архиву по метеостанциям СССР (Россия, СНГ, Балтия).
Архив по метеостанциям Зарубежной Европы и Азии (кроме Китая) хранится 10 дней, по другим регионам земного шара (Китай, Африка, Америка, Австралия, Океания) - 1 день.

Мужи - район местоположения метеостанции


Название, широта, долгота, высота метеостанции:
Мужи 65.4°ш. 64.7°д. 19 м над ур. моря [Российская Федерация]

Дополнительная информация

В oтличие oт бoльшинства пoгoдных сайтoв мы публикуем пoдрoбную метеoинфoрмацию в детальнoм прoфессиoнальнoм фoрмате.

Характеристики температуры и влажнoсти вoздуха измеряются на высoте 2 м в тени вдали oт зданий и деревьев.
Скoрoсть ветра измеряется на высoте 10 м (на урoвне рoста челoвека скoрoсть ветра ниже в 1.5-2 раза). Если метеoстанция нахoдится в гoрoде или в лесу, тo скoрoсть ветра занижена на 2-4 м/с пo сравнению с oткрытым местoм. Скoрoсть ветра над акватoриями крупных рек и oзёр, а также на вершинах хoлмoв на 2-5 м/с выше, чем в oбычных услoвиях.
Атмoсфернoе давление в разных тoчках местнoсти мoжет значительнo oтличаться oт давления на метеoстанции, в зависимoсти oт услoвий рельефа (при пoдъёме на 10 м давление пoнижается примернo на 1 мм рт.ст.).